www.pogodaiklimat.ru

Погода и климат >> Архив погоды >> Индия >> Kota


ПОГОДА в Kota

  • Прогноз погоды в Kota
  • Монитор погоды в Kota
  • Климат города

АРХИВ ПОГОДЫ в Kota

Время (UTC), дата Ветер
(напр.,м/с)
 
Видим.   Явления Облачность Т
(С)
Тd
(С)
f
(%)
Тe
(С)
Тes
(С)
Комфортность P
(гПа)
Po
(гПа)
Тmin
(С)
Tmax
(С)
R
(мм)
R24
(мм)
S
(см)
21 16.11 штиль 0 4000 м ясно +19.4 +13.1 67 +21 +21 комфорт 1012.0 1012.0
00 17.11 штиль 0 4000 м ясно +18.8 +12.0 65 +19 +19 1012.7 1013.0
03 17.11 штиль 0 2000 м мгла 5/4
[Sc Ac trans]
+20.6 +11.6 56 +22 +24 комфорт 1014.9 1015.0 +17.9 +29.3
06 17.11 СВ 1 2000 м мгла 5/4
[Sc Ac trans]
+24.6 +11.6 44 +26 +32 жарко 1014.5 1015.0
09 17.11 СВ 1 2000 м мгла 3/0
[Ci fib]
+28.2 +14.7 44 +31 +39 душно 1010.8 1011.0
12 17.11 СВ 1 2000 м мгла ясно +26.6 +15.1 49 +29 +29 жарко 1010.3 1010.0 +28.9
15 17.11 СВ 1 4000 м ясно +24.0 +13.0 50 +26 +26 жарко 1012.1 1012.0
18 17.11 СВ 1 4000 м 6/4 600 м
[Sc Ac trans]
+21.4 +13.4 60 +24 +24 комфорт 1013.9 1014.0
21 17.11 штиль 0 4000 м 6/4 600 м
[Sc Ac trans]
+20.0 +12.6 62 +22 +22 комфорт 1013.3 1013.0
00 18.11 ЮВ 1 4000 м 6/4 600 м
[Sc Ac trans]
+18.4 +12.3 68 +20 +20 1014.1 1014.0
03 18.11 СВ 1 1000 м мгла 9/6 600 м
[Sc Ac trans]
+20.2 +13.2 64 +24 +24 комфорт 1015.3 1015.0 +17.5 +28.9
06 18.11 С 2 1000 м мгла 9/6 600 м
[Sc Ac trans]
+22.0 +13.8 60 +25 +27 комфорт 1015.7 1016.0
09 18.11 СВ 2 1000 м мгла 8/4 600 м
[Sc Ac trans]
+24.8 +11.4 43 +26 +29 жарко 1012.8 1013.0
12 18.11 СВ 1 1000 м мгла 8/5 600 м
[Sc Ac trans]
+23.6 +11.6 47 +25 +25 комфорт 1012.7 1013.0 +25.4
15 18.11 СВ 1 2000 м 5/3 600 м
[Sc Ac trans]
+21.2 +14.0 63 +24 +24 комфорт 1014.6 1015.0
18 18.11 СВ 1 4000 м 5/3 600 м
[Sc Ac trans]
+20.4 +13.0 62 +24 +24 комфорт 1015.6 1016.0
21 18.11 СВ 1 4000 м 5/3 600 м
[Sc Ac trans]
+19.4 +13.0 66 +22 +22 комфорт 1015.3 1015.0
00 19.11 штиль 0 4000 м ясно +16.6 +12.6 77 +17 +17 1015.2 1015.0
03 19.11 СВ 1 1000 м мгла 4/1 600 м
[Sc Ac trans]
+18.4 +12.7 69 +20 +21 1017.0 1017.0 +15.3 +25.4
06 19.11 СВ 1 1000 м мгла ясно +23.2 +12.4 51 +26 +38 жарко 1016.8 1017.0
09 19.11 СВ 1 2000 м мгла ясно +25.8 +10.9 39 +27 +35 жарко 1014.1 1014.0
12 19.11 штиль 0 2000 м мгла 5/0
[Ac trans Ci fib]
+24.8 +10.0 39 +26 +26 жарко 1013.6 1014.0 +26.3
15 19.11 штиль 0 2000 м мгла 4/0
[Ac trans Ci fib]
+21.0 +11.3 54 +23 +23 комфорт 1015.7 1016.0
18 19.11 штиль 0 4000 м 3/0
[Ci fib]
+18.0 +9.7 58 +18 +18 1017.6 1018.0
21 19.11 штиль 0 4000 м ясно +17.0 +9.4 61 +17 +17 1016.8 1017.0
00 20.11 штиль 0 2000 м мгла ясно +15.6 +8.5 63 +15 +15 1017.6 1018.0
03 20.11 штиль 0 1000 м мгла ясно +18.4 +10.2 59 +19 +21 1019.1 1019.0 +13.9 +26.3
06 20.11 В 1 2000 м мгла ясно +22.4 +8.0 40 +24 +36 комфорт 1018.7 1019.0
09 20.11 штиль 0 2000 м ясно +23.4 +7.2 35 +24 +34 комфорт 1017.4 1017.0
12 20.11 СВ 1 2000 м мгла ясно +24.2 +7.5 34 +24 +25 комфорт 1014.7 1015.0 +25.3
15 20.11 штиль 0 2000 м мгла ясно +19.8 +8.8 49 +21 +21 комфорт 1017.2 1017.0
18 20.11 штиль 0 4000 м ясно +17.4 +7.5 52 +17 +17 1018.7 1019.0
21 20.11 штиль 0 4000 м ясно +16.0 +8.1 59 +16 +16 1018.1 1018.0
00 21.11 штиль 0 2000 м мгла ясно +15.0 +8.3 64 +15 +15 1018.6 1019.0
03 21.11 СВ 1 1000 м мгла ясно +18.0 +5.8 45 +19 +21 1017.7 1018.0 +14.0 +25.3
06 21.11 СВ 2 4000 м ясно +23.0 +1.8 25 +22 +32 комфорт 1016.3 1016.0
09 21.11 СВ 1 4000 м мгла ясно +25.4 +3.6 24 +24 +34 комфорт 1013.4 1013.0
12 21.11 СВ 1 4000 м мгла ясно +24.0 +3.6 26 +23 +23 комфорт 1013.4 1013.0 +25.9
15 21.11 штиль 0 2000 м мгла ясно +19.0 +9.1 53 +20 +20 1015.5 1016.0
18 21.11 штиль 0 4000 м ясно +19.0 +7.0 46 +19 +19 1015.6 1016.0
21 21.11 штиль 0 4000 м ясно +16.0 +7.2 56 +16 +16 1015.1 1015.0
00 22.11 штиль 0 4000 м ясно +15.0 +8.3 64 +15 +15 1014.6 1015.0
03 22.11 штиль 0 4000 м мгла ясно +18.0 +5.8 45 +18 +20 1016.3 1016.0 +13.4 +25.9
06 22.11 СВ 1 4000 м мгла ясно +23.8 +5.2 30 +24 +35 комфорт 1016.0 1016.0
09 22.11 С 2 4000 м мгла ясно +26.0 +2.0 21 +25 +32 комфорт 1012.9 1013.0
12 22.11 С 1 4000 м мгла ясно +24.8 +5.7 29 +24 +25 комфорт 1012.2 1012.0 +26.5
15 22.11 штиль 0 4000 м ясно +18.4 +5.3 42 +19 +19 1014.4 1014.0
18 22.11 штиль 0 4000 м ясно +15.6 +8.3 62 +15 +15 1014.7 1015.0
21 22.11 штиль 0 4000 м ясно +14.4 +8.9 70 +14 +14 1013.6 1014.0
00 23.11 штиль 0 4000 м ясно +13.0 +5.8 62 +13 +13 1013.8 1014.0
03 23.11 штиль 0 2000 м мгла ясно +17.0 +3.7 41 +17 +19 1015.7 1016.0 +10.9 +26.5
06 23.11 В 1 2000 м мгла ясно +23.8 +1.2 23 +23 +34 комфорт 1015.0 1015.0
09 23.11 СВ 1 4000 м мгла ясно +25.8 0.0 18 +24 +32 комфорт 1012.2 1012.0
12 23.11 СВ 1 4000 м мгла ясно +24.4 +2.4 24 +24 +24 комфорт 1011.9 1012.0 +26.2
15 23.11 штиль 0 4000 м ясно +19.0 +5.0 40 +19 +19 1013.6 1014.0

 

Местоположение метеостанции Kota (Rajasthan, Индия): широта 25.15 долгота 75.85 высота над уровнем моря 274 м.

В архиве по умолчанию представлена погода в Kota за последнюю неделю. Архивные данные за месяц целиком и за предыдущие месяцы, начиная с января 2011 года, Вы можете получить, выбрав интересующий диапазон дат из раскрывающегося списка и нажав кнопку "Ввод!".

Внимание! Время в таблицах - всемирное. Для получения местного времени необходимо прибавить поправку, которая в Kota равна 5.5 ч.

Смотрите также архив погоды в соседних городах и на ближайших метеорологических станциях:

Погода в Sheopur (Madhya Pradesh, Индия) (101 км)
Погода в Bhilwara (Rajasthan, Индия) (125 км)
Погода в Chittorgarh (Rajasthan, Индия) (127 км)
Погода в Rajgarh (Madhya Pradesh, Индия) (155 км)
Погода в Guna (Madhya Pradesh, Индия) (158 км)
Погода в Shivpuri (Madhya Pradesh, Индия) (182 км)
Погода в Jaipur (Rajasthan, Индия) (186 км)
Погода в Ajmer (Rajasthan, Индия) (190 км)
Погода в Shajapur (Madhya Pradesh, Индия) (197 км)
Погода в Maharana Pratap Airport (Rajasthan, Индия) (207 км)

Пояснения к столбцам:

Ветер - указаны скорость ветра в м/с - средняя за 10 мин, порывы в срок и между сроками (в фигурных скобках) и направление, откуда дует ветер: С - северный, СВ - северо-восточный, В - восточный, ЮВ - юго-восточный, Ю - южный, ЮЗ - юго-западный, З - западный, СЗ - северо-западный.
Видимость - горизонтальная дальность видимости в метрах или километрах. При видимости от 1 до 10 км при отсутствии осадков обычно наблюдается дымка, при ухудшении видимости до 1 км и менее - туман. В сухую погоду видимость может ухудшаться дымом, пылью или мглою.
Явления - указаны атмосферные явления, наблюдавшиеся в срок или в последний час перед сроком; фигурными скобками обозначены явления, наблюдавшиеся между сроками (за 1-3 часа до срока); квадратными скобками обозначены град или гололедные отложения с указанием их диаметра в мм.
Облачность - указаны через наклонную черту общая и нижняя облачность в баллах и высота нижней границы облаков в метрах; квадратными скобками обозначены формы облаков: Ci - перистые, Cs - перисто-слоистые, Cc - перисто-кучевые, Ac - высококучевые, As - высокослоистые, Sc - слоисто-кучевые, Ns - слоисто-дождевые, Cu - кучевые, Cb - кучево-дождевые. Подробнее классификацию облаков см. в Атласе облаков (PDF).
T - Температура воздуха - температура, измеренная на высоте 2 м над землей.
Td - Температура точки росы - температура, при понижении до которой содержащийся в воздухе водяной пар достигнет насыщения.
f - Относительная влажность воздуха - влажноcть воздуха, измеренная на высоте 2 м над землей.
Te - Эффективная температура - температура, которую ощущает одетый по сезону человек в тени. Характеристика душности погоды. При расчете учитывается влияние влажности воздуха и скорости ветра на теплоощущения человека.
Tes - Эффективная температура на солнце - температура, которую ощущает человек, с поправкой на солнечный нагрев. Характеристика знойности погоды. Зависит от высоты солнца над горизонтом, облачности и скорости ветра. Ночью, в пасмурную погоду, а также при ветре 12 м/с и более поправка равна нулю.
P - Атмосферное давление - приведенное к уровню моря атмосферное давление.
Po - Атмосферное давление - измеренное на уровне метеостанции атмосферное давление.
Tmin - Минимальная температура - минимум температуры воздуха на высоте 2 м над землей.
Tmax - Максимальная температура - максимум температуры воздуха на высоте 2 м над землей.
R - Количество осадков - Количество выпавших осадков за период времени, мм. При наведении курсора мыши на число - период времени, за который выпало указанное количество осадков.
R24 - Количество осадков - Количество выпавших осадков за 24 часа, мм.
S - Снежный покров - Высота снежного покрова, см. При наведении курсора мыши на число - состояние снежного покрова и степень покрытия местности в баллах.